Location: Abbaretz
(47.5531°N, 1.5320°W)
Time: 02:17:53
(UTC+00:00)

Daily predictions for brighter satellites

Satellite Brightness Start Highest point End
(mag) Time Altitude Azimuth Time Altitude Azimuth Time Altitude Azimuth
Cosmos 1461 2.8 00:01:36 10° NW 00:05:46 84° NE 00:06:31 59° SE
Cosmos 1867 3.7 00:05:01 46° SSE 00:06:15 57° ESE 00:11:38 10° NE
Nadezhda 2 Rocket 4.4 00:00:45 10° N 00:06:56 80° W 00:09:13 41° S
Cosmos 2221 Rocket 3.7 00:06:47 54° SE 00:07:28 63° E 00:11:51 10° NNE
Cosmos 1674 Rocket 4.1 00:06:55 40° ESE 00:07:34 43° E 00:11:40 10° NNE
Cosmos 1674 2.6 00:10:51 69° ESE 00:10:54 70° E 00:14:40 10° NNE
Cosmos 1238 Rocket 2.9 00:09:38 10° N 00:12:06 49° NE 00:12:06 49° NE
ATLAS CENTAUR R/B 2.2 00:09:14 10° NW 00:13:48 42° WSW 00:13:59 42° SW
SL-19 R/B 4.1 00:17:33 59° NNW 00:17:33 59° NNW 00:20:01 10° NNW
Cosmos 2322 Rocket 4.0 00:16:11 10° WSW 00:20:52 26° NW 00:25:35 10° N
ATLAS 5 CENTAUR R/B 3.2 00:07:40 10° NW 00:22:14 89° NE 00:24:39 30° SE
Cosmos 2333 Rocket 2.6 00:19:42 29° SW 00:22:31 58° WNW 00:28:09 10° NNE
CZ-4C R/B 2.9 00:15:19 10° NW 00:22:34 79° SW 00:27:52 25° SSE
Cosmos 1378 Rocket 3.8 00:22:19 51° SE 00:23:05 60° E 00:27:28 10° NNE
Cosmos 2322 3.8 00:20:47 37° SW 00:23:10 75° WNW 00:28:56 10° NNE
Cosmos 1818 4.5 00:18:57 10° NW 00:23:43 31° WSW 00:24:10 31° SW
Cosmos 1844 Rocket 4.2 00:21:34 10° NW 00:25:37 21° W 00:26:33 20° WSW
USA 215 3.6 00:21:27 10° NE 00:27:55 65° NNW 00:34:24 10° WSW
NOSS 0 Rocket 4.2 00:29:23 38° SSE 00:31:30 54° ESE 00:37:34 10° NE
PSLV R/B 3.6 00:29:37 10° N 00:34:00 74° WNW 00:35:00 52° SW
ALOS 2 4.3 00:38:34 19° W 00:39:00 20° W 00:42:14 10° NW
Cosmos 2151 Rocket 3.7 00:35:52 10° NNW 00:40:12 58° W 00:40:53 51° SW
Cosmos 1745 Rocket 3.9 00:35:39 10° N 00:41:56 88° W 00:44:35 37° S
Okean 2 3.9 00:42:13 42° WSW 00:42:53 46° WNW 00:46:51 10° N
Cosmos 839 Rocket 4.2 00:36:39 10° NW 00:43:01 82° NE 00:49:12 16° SE
ADEOS Rocket 3.6 00:42:18 31° SW 00:43:55 37° W 00:49:24 10° NNW
USA 308 3.6 00:44:46 37° ESE 00:44:46 37° ESE 00:48:14 10° ENE
Okean 2 Rocket 3.6 00:40:09 10° NNW 00:44:29 46° W 00:45:13 42° WSW
Cosmos 2219 Rocket 2.8 00:42:56 26° WSW 00:45:48 50° WNW 00:51:16 10° NNE
Meteor 2-12 Rocket 4.4 00:43:24 10° N 00:49:31 78° E 00:52:26 33° SSE
Meteor 1-16 Rocket 4.3 00:43:48 10° NNW 00:49:45 75° W 00:52:02 39° S
Cosmos 1707 4.3 00:50:02 23° W 00:50:48 25° WNW 00:54:02 10° NNW
GP-B 3.6 00:52:18 10° N 00:56:40 53° E 00:58:07 36° SE
Lacrosse 5 3.3 00:58:31 23° SE 00:59:06 23° SE 01:03:05 10° ENE
CZ-2D R/B 3.5 00:55:08 10° NE 00:59:46 29° E 01:02:28 19° SE
Cosmos 1300 2.7 00:56:59 10° N 01:00:47 73° E 01:01:27 56° SE
SL-14 R/B 3.1 01:02:27 64° SSW 01:03:01 85° WNW 01:06:54 10° N
ASTEX 1 4.2 00:58:55 10° N 01:03:29 39° WNW 01:05:07 30° WSW
USA 267 3.7 01:02:14 33° SSW 01:04:08 40° SW 01:10:16 10° WNW
Cosmos 883 Rocket 4.5 01:04:14 34° S 01:07:11 84° E 01:13:34 10° N
Cosmos 371 Rocket 3.2 01:06:03 44° SSW 01:07:36 86° WNW 01:12:30 10° NNE
USA 305 2.8 01:07:08 57° S 01:07:41 65° SE 01:11:51 10° ENE
Cosmos 2150 Rocket 3.9 01:06:08 41° SSW 01:08:00 83° WNW 01:13:12 10° NNE
NOSS 2-2 (C) 4.3 01:03:19 10° NW 01:08:24 65° SW 01:12:46 23° SSE
USA 229 DEB 3.9 01:02:38 10° NW 01:09:55 63° WSW 01:15:06 22° SSE
USA 229 3.9 01:02:44 10° NW 01:10:00 64° WSW 01:15:15 22° SSE
Cosmos 2237 Rocket 2.2 01:11:28 37° SSW 01:13:49 81° ESE 01:19:32 10° NNE
COSMOS 2428 3.5 01:12:17 22° WSW 01:15:33 43° NW 01:20:58 10° NNE
Cosmos 405 Rocket 3.6 01:18:03 31° W 01:18:41 34° WNW 01:22:10 10° N
Cosmos 304 Rocket 3.7 01:17:17 42° S 01:18:55 77° ESE 01:23:45 10° NNE
Cosmos 1437 Rocket 3.4 01:15:43 10° NNW 01:19:10 35° W 01:19:16 35° W
SL-16 R/B 3.2 01:14:44 10° SE 01:20:42 52° ENE 01:26:45 10° N
Lacrosse 5 rocket 3.1 01:21:54 17° SE 01:22:01 17° SE 01:24:37 10° E
Cosmos 1125 Rocket 3.7 01:20:00 34° SW 01:22:10 62° WNW 01:27:21 10° NNE
Okean 1 Rocket 3.7 01:19:02 10° NNW 01:23:11 40° W 01:24:05 36° WSW
Cosmos 1953 3.1 01:22:19 10° NNW 01:25:59 34° W 01:26:26 33° WSW
SME Rocket 3.1 01:24:35 36° SSE 01:26:14 89° ENE 01:31:23 10° NNW
Resurs 1-4 Rocket 2.6 01:24:01 10° NNE 01:29:09 51° E 01:31:56 26° SSE
Cosmos 1943 Rocket 2.6 01:27:00 10° NNW 01:32:40 62° ENE 01:38:17 10° SE
MOZ.5/SAFIR/RUBIN 5/SL-8 3.8 01:33:59 36° SSW 01:35:44 62° WSW 01:40:28 10° NNW
Cosmos 1709 Rocket 4.1 01:30:22 10° NNW 01:36:21 56° W 01:39:18 30° SSW
Cosmos 1626 4.3 01:36:39 14° W 01:37:35 15° WNW 01:39:44 10° NNW
Cosmos 2315 Rocket 4.1 01:35:34 30° SSW 01:38:54 69° W 01:45:19 10° N
Cosmos 2184 Rocket 4.3 01:37:01 10° N 01:43:15 64° ENE 01:48:45 13° SSE
Cosmos 2278 Rocket 2.9 01:38:35 10° NW 01:43:41 35° WSW 01:45:23 29° SW
EO 1 Delta rocket 4.2 01:39:13 10° N 01:43:46 56° WNW 01:46:02 30° SW
ADEOS II 3.1 01:40:07 10° NNE 01:45:01 38° E 01:48:40 16° SSE
IDEFIX/ARIANE 42P 3.9 01:41:08 10° NNE 01:45:52 33° E 01:49:52 13° SSE
USA 306 2.9 01:47:34 28° WSW 01:49:42 74° NNW 01:53:53 10° ENE
Cosmos 2084 Rocket 3.2 01:49:15 42° SSW 01:50:23 67° SE 01:54:09 10° NE
USA 307 2.9 01:51:04 28° WSW 01:53:11 78° NNW 01:57:23 10° ENE
Thor Agena Rocket 3.9 01:48:11 10° N 01:53:22 58° WNW 01:56:09 27° SW
ERBS 2.2 01:54:54 44° W 01:55:40 65° NW 01:58:43 10° NE
NPP 3.8 01:51:48 10° NNE 01:57:13 72° ESE 02:00:35 24° S
Cosmos 2369 Rocket 3.5 01:52:31 10° NNW 01:57:49 41° NE 02:03:04 10° SE
SL-16 R/B 2.4 01:58:00 25° S 02:01:20 67° ESE 02:06:58 10° NNE
Cosmos 1455 Rocket 3.5 01:57:15 10° NNW 02:01:31 45° W 02:03:15 30° SW
Cosmos 614 Rocket 4.5 01:56:34 10° NNW 02:01:44 61° ENE 02:06:53 10° SE
CZ-4 R/B 3.7 01:57:31 10° NNE 02:02:12 85° WNW 02:04:41 28° SSW
EO 1 Del DPAF 4.4 02:00:01 10° NNE 02:03:12 32° E 02:05:17 18° SSE
Cosmos 1980 4.5 02:02:27 20° WSW 02:06:04 43° NW 02:11:27 10° NNE
Meteor 1-28 Rocket 3.8 02:03:36 14° SSE 02:06:42 56° ENE 02:10:21 10° N
COSMOS 2455 3.6 02:04:48 19° S 02:08:49 44° ESE 02:14:30 10° NE
Cosmos 332 Rocket 4.4 02:07:03 24° WSW 02:09:36 46° WNW 02:14:14 10° NNE
CZ-4C R/B 4.2 02:05:03 10° WNW 02:10:34 22° WSW 02:12:59 19° SW
Cosmos 1536 Rocket 4.0 02:08:03 20° S 02:11:00 58° E 02:15:19 10° NNE
Cosmos 1975 Rocket 4.0 02:16:47 23° WSW 02:18:51 35° WNW 02:22:58 10° N
Nadezhda 1 Rocket 4.2 02:15:05 15° S 02:20:26 74° E 02:26:44 10° NNE
Meteor 1-24 Rocket 3.8 02:17:04 23° SSW 02:20:35 62° WNW 02:26:01 10° N
UNK 3.7 02:19:10 19° S 02:22:20 63° WSW 02:26:56 10° NNW
MSX 4.4 02:17:26 10° NNE 02:23:05 53° E 02:28:25 12° S
USA 308 3.4 02:20:31 15° W 02:23:52 55° NNW 02:28:01 10° ENE
Cosmos 1455 2.2 02:21:42 10° NNW 02:25:21 57° W 02:27:22 24° SSW
Cosmos 1025 Rocket 3.9 02:23:55 22° SW 02:26:03 36° WNW 02:30:02 10° N
MOS 1 Rocket 3.0 02:23:22 19° S 02:26:24 65° W 02:30:42 10° NNW
YAOGAN 11 4.2 02:23:44 19° S 02:26:50 60° WSW 02:31:19 10° NNW
Cosmos 1271 Rocket 2.7 02:25:20 10° N 02:29:10 83° ENE 02:32:45 12° SSE
CZ-2D R/B 2.7 02:34:52 10° N 02:39:59 45° WNW 02:43:47 17° SW
Lacrosse 5 1.9 02:37:41 17° WSW 02:41:36 82° NW 02:46:44 10° NE
Helios 1B rocket 4.2 02:40:35 10° NE 02:44:08 28° E 02:47:39 10° SSE
Cosmos 2341 Rocket 4.4 02:39:42 10° N 02:46:05 67° ENE 02:52:27 10° SSE
USA 305 3.9 02:43:28 10° W 02:47:28 42° NNW 02:51:27 10° ENE
Cosmos 2154 Rocket 4.1 02:43:18 10° NNW 02:49:31 60° W 02:55:42 10° S
BREEZE-M DEB (TANK) 4.1 02:47:13 15° SSW 02:50:11 26° SSE 02:52:33 10° E
Cosmos 407 Rocket 4.2 02:46:23 10° NNW 02:51:40 58° ENE 02:56:51 10° SE
Cosmos 1943 3.9 02:50:55 10° S 02:56:23 50° ESE 03:01:53 10° NE
AQUA 4.5 02:52:28 10° N 02:56:58 43° WNW 03:00:42 14° SW
Helios 1A 3.4 02:53:25 12° S 02:57:04 45° W 03:01:10 10° NNW
Cosmos 2237 Rocket 3.9 02:54:09 10° W 02:58:34 23° NW 03:03:01 10° N
Genesis I 4.1 02:54:58 10° NNW 02:58:59 54° NE 03:02:54 10° SE
Lacrosse 5 rocket 1.3 02:57:25 15° WSW 03:00:32 80° NW 03:04:40 10° NE
Cosmos 1140 Rocket 3.8 02:57:22 10° NNW 03:02:39 74° ENE 03:07:53 10° SSE
SL-16 R/B 3.4 02:59:47 13° SSW 03:04:33 31° W 03:10:01 10° NNW
Resurs 1-4 Rocket 3.4 03:04:22 10° N 03:08:41 26° WNW 03:13:00 10° WSW
Lacrosse 4 Rocket 4.2 03:07:14 10° SE 03:08:50 12° ESE 03:10:26 10° E
Cosmos 1892 Rocket 4.2 03:06:03 10° S 03:10:26 59° E 03:14:52 10° NNE
Cosmos 1726 Rocket 3.6 03:08:28 10° N 03:12:56 88° E 03:17:18 10° S
Cosmos 1703 3.8 03:11:07 12° SSW 03:14:29 44° WNW 03:18:17 10° N
Cosmos 1943 Rocket 3.4 03:11:34 10° NW 03:15:57 23° WSW 03:20:18 10° SSW
Cosmos 2263 4.2 03:11:18 10° NNW 03:16:59 75° WSW 03:22:41 10° SSE
FENGYUN 3A 4.4 03:12:03 10° NNE 03:17:18 52° E 03:22:33 10° S
NOSS 3-3 (A) 4.1 03:13:35 10° SSW 03:19:11 69° SE 03:25:39 10° NE
NOSS 3-3 (C) 4.1 03:13:42 10° SSW 03:19:17 68° SE 03:25:44 10° NE
Cosmos 1023 Rocket 4.5 03:15:40 10° NNW 03:20:58 77° WSW 03:26:12 10° SSE
ADEOS II 3.0 03:19:57 10° N 03:24:38 34° WNW 03:29:18 10° SW
IDEFIX/ARIANE 42P 3.3 03:20:37 10° N 03:25:29 39° WNW 03:30:20 10° SW
SL-24 DEB 4.3 03:22:11 10° S 03:26:55 87° E 03:31:39 10° N
ARIANE 5 R/B 3.6 03:22:43 10° NNE 03:27:33 42° E 03:32:16 10° S
USA 306 4.3 03:25:53 10° WNW 03:29:44 35° N 03:33:35 10° ENE
CBERS-1 4.1 03:25:24 10° NNE 03:30:32 83° WNW 03:35:40 10° SSW
USA 307 4.3 03:29:21 10° WNW 03:33:13 35° N 03:37:06 10° ENE
Cosmos 2218 Rocket 4.0 03:28:26 10° N 03:34:41 80° W 03:40:58 10° S
DNEPR-1 R/B 3.7 03:33:07 10° SSW 03:37:18 74° SE 03:42:01 10° NE
MOS 1-B Rocket 3.9 03:32:35 10° S 03:38:09 63° WSW 03:43:54 10° NNW
Cosmos 2228 4.2 03:35:46 10° NNW 03:39:23 26° W 03:42:58 10° SW
Cosmos 2056 Rocket 3.9 03:35:18 10° S 03:40:25 64° ESE 03:45:39 10° NNE
DEBRIS 3.4 03:31:55 10° WNW 03:41:18 78° SSW 03:44:19 10° ESE
Cosmos 2369 Rocket 2.8 03:36:42 10° NW 03:41:46 36° WSW 03:46:48 10° S
IRS-1D 4.1 03:37:07 10° N 03:42:12 46° WNW 03:47:13 10° SW
